NSS-11

Last updated on Fri Jul 11 2025 00:02:42 GMT+0000 (Coordinated Universal Time)

1 26554U 00059A 25191.53794666 .00000036 00000+0 00000+0 0 9997 2 26554 1.2405 85.6178 0003250 21.8758 190.8669 1.00271677 37866
UTC large
Height (km)
Speed (km/s)
/
Latitude / Longitude
Inclination (degrees)
Orbital Period (minutes)
Azimuth
Elevation
Range (km)
Doppler Factor

Next 0 passes for location: London (51.5072 / 0.1276)

Sorry there are no passes over London.